User: anonymous   Login
Location: Unspecified
(0.0000°N, 0.0000°E)
Time: 18:47:16
(UTC+00:00)
Language:

COSMOS 2409 - Orbit

View from above orbital plane
View from above orbital plane
View from above satellite
View from above satellite

Ground track
Ground track

The orbit data is extracted from the following two-line orbital elements,

1 28380U 04028A   17233.87034299 +.00000007 +00000-0 -80310-5 0  9998
2 28380 082.9619 299.7042 0037791 260.0171 099.6727 13.76042575657036
Epoch (UTC): 21 August 2017 20:53:17
Eccentricity: 0.0037791
inclination: 82.9619°
perigee height: 950 km
apogee height: 1006 km
right ascension of ascending node: 299.7042°
argument of perigee: 260.0171°
revolutions per day: 13.76042575
mean anomaly at epoch: 99.6727°
orbit number at epoch: 65703

The dashed part of the orbit path shows where the satellite is in the earth's shadow,  

DLR